Change the Weather History Date:

Thursday, October 25, 2012

  Actual Average Record
Temperature  
Mean Temperature 64 °F -  
Max Temperature 68 °F 74 °F 89 °F (2004)
Min Temperature 59 °F 53 °F 48 °F (2005)
Degree Days  
Heating Degree Days 2    
Growing Degree Days 14 (Base 50)    
Moisture  
Dew Point 58 °F    
Average Humidity 85    
Maximum Humidity 100    
Minimum Humidity 55    
Precipitation  
Precipitation 0.59 in - - ()
Sea Level Pressure  
Sea Level Pressure 29.83 in    
Wind  
Wind Speed 5 mph ()    
Max Wind Speed 15 mph    
Max Gust Speed -    
Visibility 6.0 miles    
Events Rain , Thunderstorm    
Averages and records for this station are not official NWS values.
T = Trace of Precipitation, MM = Missing Value Source: Averaged Metar Reports

Daily Weather History Graph

Daily Weather History Graph

Search for Another Location

Airport or City:

Trip Planner

Search our weather history database for the weather conditions in past years. The results will help you decide how hot, cold, wet, or windy it might be!

Date:

Astronomy

Oct. 25, 2012 Rise Set
Actual Time 6:55 AM EEST 5:48 PM EEST
Civil Twilight 6:29 AM EEST 6:15 PM EEST
Nautical Twilight 5:58 AM EEST 6:45 PM EEST
Astronomical Twilight 5:28 AM EEST 7:15 PM EEST
Moon 3:19 PM EEST (10/25) 2:36 AM EEST (10/25)
Length of Visible Light 11h 46m
Length of Day
10h 52m
Waxing Gibbous, 82% of the Moon is Illuminated
Oct 25
Waxing Gibbous
Oct 29
Full
Nov 7
Last Quarter
Nov 14
New
Nov 20
First Quarter

Hourly Weather History & Observations

Time (EEST) Temp. Dew Point Humidity Pressure Visibility Wind Dir Wind Speed Gust Speed Precip Events Conditions
12:20 AM 64.4 °F 57.2 °F 77% 29.86 in 6.2 mi NW 2.3 mph - N/A   Mostly Cloudy
12:50 AM 64.4 °F 55.4 °F 73% 29.86 in 6.2 mi Variable 2.3 mph - N/A   Mostly Cloudy
1:20 AM 64.4 °F 55.4 °F 73% 29.83 in 6.2 mi Variable 2.3 mph - N/A   Mostly Cloudy
1:50 AM 64.4 °F 55.4 °F 73% 29.83 in 6.2 mi Variable 2.3 mph - N/A   Mostly Cloudy
2:20 AM 64.4 °F 55.4 °F 73% 29.83 in 6.2 mi NNW 4.6 mph - N/A   Mostly Cloudy
2:50 AM 62.6 °F 55.4 °F 77% 29.83 in 6.2 mi WNW 3.5 mph - N/A   Mostly Cloudy
3:00 AM 63 °F 56 °F 70% 29.83 in 6 mi WNW 3.5 mph - -   Partly Cloudy
3:20 AM 62.6 °F 55.4 °F 77% 29.83 in 6.2 mi NNW 3.5 mph - N/A   Mostly Cloudy
3:50 AM 62.6 °F 55.4 °F 77% 29.80 in 6.2 mi North 9.2 mph - N/A   Mostly Cloudy
4:20 AM 64.4 °F 53.6 °F 68% 29.80 in 6.2 mi North 4.6 mph - N/A   Mostly Cloudy
4:50 AM 62.6 °F 55.4 °F 77% 29.80 in 6.2 mi SW 1.2 mph - N/A   Mostly Cloudy
5:20 AM 64.4 °F 53.6 °F 68% 29.80 in 6.2 mi Variable 2.3 mph - N/A   Mostly Cloudy
5:50 AM 62.6 °F 55.4 °F 77% 29.80 in 6.2 mi West 1.2 mph - N/A   Mostly Cloudy
6:20 AM 60.8 °F 55.4 °F 82% 29.80 in 6.2 mi NE 4.6 mph - N/A   Mostly Cloudy
6:50 AM 64.4 °F 53.6 °F 68% 29.80 in 6.2 mi NE 5.8 mph - N/A   Mostly Cloudy
7:20 AM 62.6 °F 55.4 °F 77% 29.80 in 6.2 mi NNW 3.5 mph - N/A   Mostly Cloudy
7:50 AM 66.2 °F 55.4 °F 68% 29.80 in 6.2 mi North 5.8 mph - N/A   Mostly Cloudy
8:20 AM 66.2 °F 55.4 °F 68% 29.80 in 6.2 mi NE 12.7 mph - N/A   Mostly Cloudy
8:50 AM 68.0 °F 55.4 °F 64% 29.80 in 6.2 mi ENE 15.0 mph - N/A   Mostly Cloudy
9:00 AM 67 °F 55 °F 55% 29.81 in 6 mi ENE 15.0 mph - -   Partly Cloudy
9:20 AM 68.0 °F 55.4 °F 64% 29.80 in 6.2 mi ENE 15.0 mph - N/A   Mostly Cloudy
9:50 AM 66.2 °F 55.4 °F 68% 29.80 in 6.2 mi NE 13.8 mph - N/A Rain , Thunderstorm Light Thunderstorms and Rain
10:20 AM 62.6 °F 59.0 °F 88% 29.86 in 5.6 mi ESE 10.4 mph - N/A Rain , Thunderstorm Light Thunderstorms and Rain
10:50 AM 62.6 °F 60.8 °F 94% 29.89 in 5.6 mi South 5.8 mph - N/A Rain , Thunderstorm Light Thunderstorms and Rain
11:20 AM 62.6 °F 60.8 °F 94% 29.89 in 3.1 mi SW 5.8 mph - N/A Rain Rain Showers
11:50 AM 60.8 °F 60.8 °F 100% 29.89 in 3.7 mi SSW 5.8 mph - N/A Rain Light Rain Showers
12:20 PM 60.8 °F 59.0 °F 94% 29.89 in 3.7 mi SW 3.5 mph - N/A Rain Light Rain Showers
12:50 PM 60.8 °F 60.8 °F 100% 29.89 in 5.0 mi NW 3.5 mph - N/A Rain Light Rain Showers
1:20 PM 60.8 °F 60.8 °F 100% 29.89 in 5.0 mi North 3.5 mph - N/A Rain Light Rain Showers
1:50 PM 62.6 °F 60.8 °F 94% 29.86 in 6.2 mi North 6.9 mph - N/A Rain Light Rain Showers
2:20 PM 62.6 °F 60.8 °F 94% 29.86 in 6.2 mi North 9.2 mph - N/A Rain Light Rain Showers
2:50 PM 62.6 °F 60.8 °F 94% 29.86 in 6.2 mi North 8.1 mph - N/A Rain Light Rain Showers
3:00 PM 62 °F 61 °F 97% 29.86 in 6 mi North 8.1 mph - - Rain Light Rain Showers
3:20 PM 62.6 °F 60.8 °F 94% 29.86 in 6.2 mi North 9.2 mph - N/A   Mostly Cloudy
3:50 PM 62.6 °F 59.0 °F 88% 29.86 in 6.2 mi NNW 6.9 mph - N/A   Mostly Cloudy
4:20 PM 62.6 °F 59.0 °F 88% 29.83 in 6.2 mi North 8.1 mph - N/A   Mostly Cloudy
4:50 PM 62.6 °F 59.0 °F 88% 29.83 in 6.2 mi NNW 8.1 mph - N/A   Mostly Cloudy
5:20 PM 62.6 °F 57.2 °F 82% 29.83 in 6.2 mi NNE 2.3 mph - N/A   Mostly Cloudy
5:50 PM 62.6 °F 59.0 °F 88% 29.80 in 6.2 mi NNE 5.8 mph - N/A   Mostly Cloudy
6:20 PM 62.6 °F 59.0 °F 88% 29.80 in 6.2 mi ENE 3.5 mph - N/A   Mostly Cloudy
6:50 PM 62.6 °F 59.0 °F 88% 29.83 in 6.2 mi SE 2.3 mph - N/A   Mostly Cloudy
7:20 PM 62.6 °F 59.0 °F 88% 29.83 in 6.2 mi SE 3.5 mph - N/A   Mostly Cloudy
7:50 PM 62.6 °F 60.8 °F 94% 29.83 in 6.2 mi SSW 2.3 mph - N/A   Mostly Cloudy
8:20 PM 60.8 °F 60.8 °F 100% 29.83 in 6.2 mi North 2.3 mph - N/A   Mostly Cloudy
8:50 PM 60.8 °F 60.8 °F 100% 29.83 in 6.2 mi Calm Calm - N/A   Mostly Cloudy
9:00 PM 61 °F 60 °F 97% 29.83 in 6 mi Calm Calm - -   Partly Cloudy
9:20 PM 60.8 °F 60.8 °F 100% 29.83 in 6.2 mi NW 2.3 mph - N/A   Mostly Cloudy
9:50 PM 60.8 °F 60.8 °F 100% 29.83 in 6.2 mi NNW 4.6 mph - N/A   Mostly Cloudy
10:20 PM 60.8 °F 60.8 °F 100% 29.83 in 6.2 mi NW 5.8 mph - N/A   Mostly Cloudy
10:50 PM 60.8 °F 59.0 °F 94% 29.83 in 6.2 mi Calm Calm - N/A   Mostly Cloudy
11:20 PM 59.0 °F 59.0 °F 100% 29.83 in 6.2 mi NE 3.5 mph - N/A   Mostly Cloudy
11:50 PM 59.0 °F 59.0 °F 100% 29.83 in 6.2 mi NE 4.6 mph - N/A   Mostly Cloudy